Погода в Котласе

Поиск расширенной информации на нашем сайте:

Полезная информация:

Новости сайта



02.01.2020
Опубликован Долгосрочный прогноз погоды по городам России и ближнего зарубежья на январь 2020 года.
Карты: Прогноз на январь и февраль 2020 года, Сравнение прогнозируемой аномалии приземной температуры воздуха на январь 2020 года по разным моделям.




Погода в Котласе - сегодня

Время (UTC), дата Ветер
(°,м/с) 
Видим.   Явления Облачность Т
(°С)
Тd
(°С)
f(%) Тe
(°С)
Pmin
(гПа)
dP
(гПа)
Po
(мм)
O2
(г/м3)
Тmin Tmax R s Состояние
почвы
18 28.11.20 тихо ()   4000 м  дымка  6/0 верхняя 
[Ci fib]
-15.5 -16.1 95 -16  1041.3  0.9  775  333           
21 28.11.20 тихо ()   4000 м  дымка  4/0 верхняя 
[Ci fib]
-16.4 -17.7 90 -16  1042.3  776  334           
00 29.11.20 тихо ()   4000 м  дымка  4/0 верхняя 
[Ci fib]
-16.6 -17.9 90 -17  1042.8  0.5  776  335           
03 29.11.20 тихо ()   4000 м  дымка  8/0 верхняя 
[Ci fib]
-16.5 -17.8 90 -17  1043.4  0.6  777  335  -16.7      равномерный
сухой снег
100% 
06 29.11.20 тихо ()   4000 м  дымка  1/0 верхняя 
[Ci fib]
-17.2 -18.4 90 -17  1043.6  0.2  777  336  -17.2         
09 29.11.20 тихо ()   4000 м  дымка  10/8 800 м средняя 
[Sc|Ac und]
-12.6 -13.9 90 -13  1043.5  0.1  777  330           
12 29.11.20 130 (ЮВ) 4000 м  дымка  10/8 900 м средняя 
[Sc|Ac und]
-9.3 -10 95 -9  1043.6  0.1  777  325           
15 29.11.20 140 (ЮВ) 10 км    10/10 360 м 
[Sc]
-8.4 -9 95 -10  1043.5  -0.1  777  324    -8.4       
18 29.11.20 140 (ЮВ) 10 км    10/8 630 м средняя 
[Sc|Ac und]
-7.8 -8.8 93 -11  1043.6  0.1  777  323           
21 29.11.20 120 (ЮВ) 10 км    10/8 330 м средняя 
[Sc|Ac und]
-7.1 -8 93 -9  1043.4  -0.1  777  322           
00 30.11.20 150 (ЮВ) 10 км    10/6 1020 м средняя 
[Sc|Ac und]
-5.8 -6.9 92 -8  1042.2  -1.2  776  320           
03 30.11.20 140 (ЮВ) 10 км    10/8 270 м средняя 
[Sc|Ac und]
-5 -6 93 -7  1041.6  -0.6  776  319  -8.4      равномерный
сухой снег
100% 
06 30.11.20 180 (Ю) 20000 м    10/9 210 м 
[Sc]
-4.4 -5.3 93 -7  1041.1  -0.5  775  318           
09 30.11.20 150 (ЮВ) 4000 м  дымка{ливн. осадки}  10/9 240 м 
[Sc]
-2.8 -3.5 95 -5  1040  -1  775  316           
12 30.11.20 160 (Ю) 50000 м  {ливн. осадки}  10/9 300 м 
[Sc]
-1.8 -2.9 92 -5  1039.2  -0.8  774  314           
15 30.11.20 150 (ЮВ) 10 км    8/3 600 м средняя, верхняя 
[Sc|Ac trans|Ci fib]
-1.6 -2.7 92 -4  1037.9  -1.3  773  314    -1.2  0.0     
18 30.11.20 130 (ЮВ) 10 км    8/0 верхняя 
[Ci fib]
-2.8 -4.4 89 -6  1035.7  -2.1  771  315           
21 30.11.20 150 (ЮВ) 10 км    10/10 360 м 
[Sc]
-3.1 -5.1 86 -7  1035.3  -0.5  771  315           
00 01.12.20 170 (Ю) 4{11}  10 км    10/8 450 м средняя 
[Sc|Ac und]
-3.2 -5.6 83 -6  1035  -0.3  771  315           
03 01.12.20 170 (Ю) 10 км    8/4 300 м верхняя 
[Sc|Ci fib]
-4.7 -7.1 83 -9  1034.3  -0.7  770  317  -4.7      равномерный
сухой снег
100% 
06 01.12.20 170 (Ю) 20000 м    6/0 средняя, верхняя 
[Ac trans|Ci fib]
-6 -8.3 84 -10  1034.2  -0.1  770  318  -6         
09 01.12.20 160 (Ю) 20000 м    10/3 1000 м средняя, верхняя 
[Sc|Ac trans|Ci fib]
-4.8 -8.8 74 -9  1034.1  -0.1  770  317           
12 01.12.20 170 (Ю) 20000 м    10/3 1000 м средняя 
[Sc|Ac und]
-4.7 -10 66 -9  1033.4  -0.7  770  317           
15 01.12.20 170 (Ю) 10 км    10/8 800 м средняя 
[Sc|Ac und]
-4.2 -8.8 70 -7  1033.5  0.1  770  316    -4.2       
21 01.12.20 180 (Ю) 4000 м  слаб. ливневой снег  10/5 600 м кучево-дожд., средняя 
[Cb cap|Ac und]
-4.3 -7 81 -8  1033.6  770  316           
Время (UTC), дата Ветер
(°,м/с) 
Видим.   Явления Облачность Т
(°С)
Тd
(°С)
f(%) Тe
(°С)
Pmin
(гПа)
dP
(гПа)
Po
(мм)
O2
(г/м3)
Тmin Tmax R s Состояние
почвы

Для получения пояснительной информации подведите курсор к названию столбца.

ПОГОДА в Котласе - архив

Всё, что Вы хотите узнать о погоде в Котласе - удобно и подробно!

Выберите нужную дату (начиная с 1 января 2019* года) и нажмите кнопку "Найти".
Будут отображены архивные сводки погоды по пункту Котлас, начиная с указанной даты.


Отображать данные в формате CSV (для использования в таблицах Excel)


Внимание! Наш архив погоды предназначен исключительно для личного некоммерческого использования в познавательных целях. Если Вам необходимы официальные справки о состоянии погоды (для производственных, юридических, коммерческих и т.п. целей), обращайтесь в органы Росгидромета.

*Примечание: данная дата относится к архиву по метеостанциям СССР (Россия, СНГ, Балтия).
Архив по метеостанциям Зарубежной Европы и Азии (кроме Китая) хранится 10 дней, по другим регионам земного шара (Китай, Африка, Америка, Австралия, Океания) - 1 день.

Котлас - район местоположения метеостанции


Название, широта, долгота, высота метеостанции:
Котлас 61.2°ш. 46.7°д. 56 м над ур. моря [Российская Федерация]

Дополнительная информация

В oтличие oт бoльшинства пoгoдных сайтoв мы публикуем пoдрoбную метеoинфoрмацию в детальнoм прoфессиoнальнoм фoрмате.

Характеристики температуры и влажнoсти вoздуха измеряются на высoте 2 м в тени вдали oт зданий и деревьев.
Скoрoсть ветра измеряется на высoте 10 м (на урoвне рoста челoвека скoрoсть ветра ниже в 1.5-2 раза). Если метеoстанция нахoдится в гoрoде или в лесу, тo скoрoсть ветра занижена на 2-4 м/с пo сравнению с oткрытым местoм. Скoрoсть ветра над акватoриями крупных рек и oзёр, а также на вершинах хoлмoв на 2-5 м/с выше, чем в oбычных услoвиях.
Атмoсфернoе давление в разных тoчках местнoсти мoжет значительнo oтличаться oт давления на метеoстанции, в зависимoсти oт услoвий рельефа (при пoдъёме на 10 м давление пoнижается примернo на 1 мм рт.ст.).